Regional Weather Roundup
Issued by NWS

Home | Current Version | Previous Version | Graphics & Text | Print | Product List | Glossary On
Versions: 1 2 3 4 5 6 7 8 9 10 11 12 13 14 15 16 17 18 19 20 21 22 23 24 25 26 27 28 29 30 31 32 33 34 35 36 37 38 39 40 41 42 43 44 45 46 47 48 49 50
000
ASUS43 KBIS 252010
RWRND

NORTH DAKOTA REGIONAL WEATHER ROUNDUP
NATIONAL WEATHER SERVICE BISMARCK ND
300 PM CDT SAT OCT 25 2014

NOTE: "FAIR" INDICATES FEW OR NO CLOUDS BELOW 12,000 FEET WITH NO
SIGNIFICANT WEATHER AND/OR OBSTRUCTIONS TO VISIBILITY.


NDZ001>003-009>011-017-252100-
NORTHWEST NORTH DAKOTA

CITY           SKY/WX    TMP DP  RH WIND       PRES   REMARKS
WILLISTON      SUNNY     62  29  28 SE10      30.03F
MINOT          SUNNY     60  24  25 SW3       30.06F
MINOT AFB      SUNNY     60  27  28 SW9       30.06F
$$

NDZ018>021-031>035-040>046-252100-
SOUTHWEST NORTH DAKOTA

CITY           SKY/WX    TMP DP  RH WIND       PRES   REMARKS
BISMARCK       SUNNY     64  31  28 CALM      30.10F
DICKINSON      SUNNY     64  28  25 SE17      30.03F
GARRISON         N/A     60  30  32 VRB7      30.08F
HETTINGER ARPT SUNNY     64  29  26 SE15G23   30.05F
$$

NDZ004>008-012>016-024-026-027-054-252100-
NORTHEAST NORTH DAKOTA

CITY           SKY/WX    TMP DP  RH WIND       PRES   REMARKS
GRAND FORKS    MOSUNNY   60  24  25 NW14G23   30.06S
GRND FRKS AFB  SUNNY     60  25  25 NW7G22    30.07S
DEVILS LAKE    SUNNY     57  27  30 W13       30.06F
$$

NDZ022-023-025-028>030-036>039-047>053-252100-
SOUTHEAST NORTH DAKOTA

CITY           SKY/WX    TMP DP  RH WIND       PRES   REMARKS
FARGO          SUNNY     61  26  26 NW15      30.08F
JAMESTOWN      SUNNY     61  27  27 NW9       30.09F
$$




USA.gov is the U.S. government's official web portal to all federal, state and local government web resources and services.